Tracking 30692 objects as of 16-Jun-2025
HD Live streaming from Space Station
objects crossing your sky now

STARLINK-5089

Track STARLINK-5089 now!
10-day predictions
STARLINK-5089 is classified as:


NORAD ID: 56148
Int'l Code: 2023-046BJ
Perigee: 565.5 km
Apogee: 566.9 km
Inclination: 43.0 °
Period: 95.8 minutes
Semi major axis: 6937 km
RCS: Unknown
Launch date: March 29, 2023
Source: United States (US)
Launch site: AIR FORCE EASTERN TEST RANGE (AFETR)
Your satellite tracking list
Your tracking list is empty




NASA's NSSDC Master Catalog

Two Line Element Set (TLE):
1 56148U 23046BJ  25167.12729353  .00000311  00000-0  38072-4 0  9991
2 56148  43.0027 116.2026 0001042 272.7857  87.2866 15.02534340123094
Source of the keplerian elements: AFSPC